RCH111 LICZ-EINN

Flight info

Callsign RCH111
Flight time N/A
Altitude 38000
Route LIBRO DCT PNZ DCT TAQ DCT VOG DCT PAS DCT BCY DCT BHD DCT EVRIN DCT TIPUR TIPUR2E
Aircraft B737/M-SDFGHIM1RWXYZ/LB1

Departure

Time 2026-04-25 08:00
Airport Sigonella Navy Air Base (LICZ)

Arrival

Time N/A
Airport Shannon Airport (EINN)
Time Latitude Longitude Altitude Speed Heading
2026-04-25 07:33 37.40727 14.91726 95 ft 0 kts 278°
2026-04-25 07:54 37.40728 14.91724 93 ft 1 kts 278°
2026-04-25 07:54 37.40729 14.91702 95 ft 4 kts 269°
2026-04-25 07:54 37.40701 14.91674 93 ft 7 kts 190°
2026-04-25 07:55 37.40640 14.91662 94 ft 11 kts 188°
2026-04-25 07:55 37.40565 14.91702 93 ft 14 kts 138°
2026-04-25 07:55 37.40487 14.91790 94 ft 16 kts 138°
2026-04-25 07:55 37.40408 14.91855 93 ft 14 kts 118°
2026-04-25 07:56 37.40389 14.91984 95 ft 16 kts 98°
2026-04-25 07:56 37.40370 14.92141 97 ft 21 kts 98°
2026-04-25 07:56 37.40346 14.92346 93 ft 26 kts 98°
2026-04-25 07:56 37.40319 14.92580 93 ft 24 kts 98°
2026-04-25 07:57 37.40252 14.92708 94 ft 19 kts 185°
2026-04-25 07:57 37.40166 14.92690 95 ft 19 kts 189°
2026-04-25 07:57 37.40090 14.92842 96 ft 18 kts 98°
2026-04-25 07:57 37.40073 14.92993 96 ft 17 kts 98°
2026-04-25 07:58 37.40062 14.93090 96 ft 17 kts 98°
2026-04-25 07:58 37.40045 14.93233 95 ft 17 kts 98°
2026-04-25 07:58 37.40021 14.93438 94 ft 19 kts 98°
2026-04-25 07:58 37.40013 14.93547 94 ft 16 kts 83°
2026-04-25 07:59 37.40102 14.93601 92 ft 17 kts
2026-04-25 07:59 37.40193 14.93596 92 ft 10 kts 315°
2026-04-25 07:59 37.40203 14.93563 92 ft 0 kts 278°
2026-04-25 07:59 37.40204 14.93551 93 ft 12 kts 278°
2026-04-25 08:00 37.40259 14.93088 95 ft 94 kts 278°
2026-04-25 08:00 37.40391 14.91967 106 ft 160 kts 278°
2026-04-25 08:00 37.40562 14.90513 735 ft 173 kts 278°
2026-04-25 08:00 37.40830 14.88963 1462 ft 193 kts 286°
2026-04-25 08:01 37.41210 14.87256 2153 ft 207 kts 286°
2026-04-25 08:01 37.41581 14.85522 3015 ft 212 kts 288°
2026-04-25 08:01 37.42020 14.83684 3819 ft 222 kts 289°
2026-04-25 08:01 37.42485 14.81825 4837 ft 223 kts 290°
2026-04-25 08:02 37.42965 14.79943 5760 ft 227 kts 290°
2026-04-25 08:02 37.43443 14.78079 6723 ft 227 kts 291°
2026-04-25 08:02 37.44282 14.76418 7538 ft 227 kts 323°
2026-04-25 08:02 37.45677 14.75524 8415 ft 227 kts 348°
2026-04-25 08:03 37.47250 14.75246 9282 ft 230 kts 354°
2026-04-25 08:03 37.48854 14.75046 10138 ft 233 kts 355°
2026-04-25 08:03 37.50482 14.74839 10928 ft 236 kts 354°
2026-04-25 08:03 37.52103 14.74626 11727 ft 238 kts 353°
2026-04-25 08:04 37.53644 14.73859 12521 ft 244 kts 321°
2026-04-25 08:04 37.54706 14.72097 12978 ft 267 kts 297°
2026-04-25 08:04 37.55444 14.69808 13192 ft 295 kts 292°
2026-04-25 08:04 37.56156 14.67287 13396 ft 321 kts 291°
2026-04-25 08:05 37.56924 14.64523 13599 ft 346 kts 291°
2026-04-25 08:05 37.57756 14.61560 13788 ft 368 kts 291°
2026-04-25 08:05 37.58639 14.58461 14244 ft 380 kts 291°
2026-04-25 08:05 37.59547 14.55312 14873 ft 384 kts 292°
2026-04-25 08:06 37.60468 14.52136 15533 ft 388 kts 292°
2026-04-25 08:06 37.61514 14.49039 16108 ft 390 kts 303°
2026-04-25 08:06 37.63319 14.46493 16682 ft 390 kts 323°
2026-04-25 08:06 37.65665 14.44804 17269 ft 389 kts 340°
2026-04-25 08:07 37.68223 14.43631 17856 ft 392 kts 342°
2026-04-25 08:07 37.70822 14.42521 18372 ft 396 kts 343°
2026-04-25 08:07 37.73420 14.41433 18816 ft 399 kts 343°
2026-04-25 08:07 37.76064 14.40322 19292 ft 402 kts 343°
2026-04-25 08:08 37.78719 14.39194 19736 ft 404 kts 343°
2026-04-25 08:08 37.81398 14.38041 20136 ft 408 kts 343°
2026-04-25 08:08 37.84096 14.36870 20519 ft 411 kts 343°
2026-04-25 08:08 37.86810 14.35685 20934 ft 413 kts 343°
2026-04-25 08:09 37.89543 14.34487 21309 ft 416 kts 343°
2026-04-25 08:09 37.92252 14.33297 21658 ft 418 kts 343°
2026-04-25 08:09 37.95019 14.32079 21993 ft 421 kts 343°
2026-04-25 08:09 37.97809 14.30850 22304 ft 424 kts 343°
2026-04-25 08:10 38.00601 14.29618 22657 ft 425 kts 343°
2026-04-25 08:10 38.03403 14.28381 22951 ft 428 kts 343°
2026-04-25 08:10 38.06191 14.27151 23228 ft 430 kts 343°
2026-04-25 08:10 38.09031 14.25895 23526 ft 432 kts 343°
2026-04-25 08:11 38.11885 14.24633 23789 ft 434 kts 343°
2026-04-25 08:11 38.14751 14.23365 24011 ft 436 kts 343°
2026-04-25 08:11 38.17631 14.22088 24253 ft 437 kts 343°
2026-04-25 08:11 38.20514 14.20810 24460 ft 439 kts 343°
2026-04-25 08:12 38.23382 14.19537 24626 ft 442 kts 343°
2026-04-25 08:12 38.26291 14.18245 24848 ft 443 kts 343°
2026-04-25 08:12 38.29209 14.16948 25038 ft 444 kts 343°
2026-04-25 08:12 38.32136 14.15646 25230 ft 445 kts 343°
2026-04-25 08:13 38.35045 14.14350 25419 ft 447 kts 343°
2026-04-25 08:13 38.37986 14.13040 25603 ft 448 kts 343°
2026-04-25 08:13 38.40928 14.11727 25777 ft 449 kts 343°
2026-04-25 08:14 38.46837 14.09088 26105 ft 451 kts 343°
2026-04-25 08:14 38.49806 14.07760 26250 ft 452 kts 343°
2026-04-25 08:14 38.52743 14.06446 26381 ft 453 kts 343°
2026-04-25 08:14 38.55735 14.05106 26533 ft 454 kts 343°
2026-04-25 08:15 38.58720 14.03767 26665 ft 455 kts 343°
2026-04-25 08:15 38.61709 14.02426 26813 ft 456 kts 343°
2026-04-25 08:15 38.64708 14.01078 26938 ft 457 kts 343°
2026-04-25 08:15 38.67708 13.99730 27066 ft 457 kts 343°
2026-04-25 08:16 38.70713 13.98378 27184 ft 458 kts 343°
2026-04-25 08:16 38.73698 13.97033 27296 ft 459 kts 343°
2026-04-25 08:16 38.76713 13.95674 27399 ft 460 kts 343°
2026-04-25 08:16 38.79740 13.94309 27497 ft 461 kts 343°
2026-04-25 08:17 38.82770 13.92940 27608 ft 461 kts 343°
2026-04-25 08:17 38.85800 13.91571 27703 ft 462 kts 343°
2026-04-25 08:17 38.88839 13.90196 27799 ft 463 kts 343°
2026-04-25 08:17 38.91879 13.88819 27889 ft 463 kts 343°
2026-04-25 08:18 38.94923 13.87440 27987 ft 464 kts 343°
2026-04-25 08:18 38.97964 13.86060 28118 ft 463 kts 343°
2026-04-25 08:18 39.00977 13.84692 28224 ft 463 kts 343°
2026-04-25 08:19 39.07072 13.81921 28416 ft 464 kts 343°
2026-04-25 08:19 39.10117 13.80534 28579 ft 463 kts 343°
2026-04-25 08:19 39.13114 13.79168 28733 ft 462 kts 343°
2026-04-25 08:19 39.16137 13.77789 28846 ft 462 kts 343°
2026-04-25 08:20 39.19173 13.76403 28959 ft 462 kts 343°
2026-04-25 08:20 39.22202 13.75019 29078 ft 462 kts 342°
2026-04-25 08:20 39.25238 13.73630 29236 ft 461 kts 342°
2026-04-25 08:20 39.28262 13.72246 29381 ft 460 kts 342°
2026-04-25 08:21 39.31281 13.70863 29491 ft 460 kts 342°
2026-04-25 08:21 39.34297 13.69479 29615 ft 460 kts 342°
2026-04-25 08:21 39.37318 13.68093 29739 ft 460 kts 342°
2026-04-25 08:21 39.40330 13.66709 29879 ft 459 kts 342°
2026-04-25 08:22 39.43306 13.65340 30011 ft 459 kts 342°
2026-04-25 08:22 39.46317 13.63954 30176 ft 457 kts 342°
2026-04-25 08:22 39.49310 13.62574 30393 ft 455 kts 342°
2026-04-25 08:22 39.52288 13.61201 30507 ft 454 kts 342°
2026-04-25 08:23 39.55243 13.59837 30562 ft 455 kts 342°
2026-04-25 08:23 39.61230 13.57071 30755 ft 455 kts 342°
2026-04-25 08:23 39.64221 13.55686 30887 ft 454 kts 342°
2026-04-25 08:24 39.67160 13.54324 30987 ft 454 kts 342°
2026-04-25 08:24 39.73117 13.51561 31168 ft 454 kts 342°
2026-04-25 08:24 39.76091 13.50180 31281 ft 454 kts 342°
2026-04-25 08:25 39.79060 13.48799 31360 ft 454 kts 342°
2026-04-25 08:25 39.85064 13.46004 31498 ft 460 kts 342°
2026-04-25 08:25 39.88074 13.44601 31954 ft 458 kts 342°
2026-04-25 08:26 39.91018 13.43226 32545 ft 453 kts 342°
2026-04-25 08:26 39.93982 13.41840 33086 ft 450 kts 342°
2026-04-25 08:26 39.96934 13.40459 33460 ft 450 kts 342°
2026-04-25 08:26 39.99886 13.39078 33782 ft 451 kts 342°
2026-04-25 08:27 40.02848 13.37691 34161 ft 451 kts 343°
2026-04-25 08:27 40.05795 13.36310 34528 ft 449 kts 342°
2026-04-25 08:27 40.08737 13.34929 34884 ft 448 kts 342°
2026-04-25 08:27 40.11633 13.33568 35198 ft 447 kts 342°
2026-04-25 08:28 40.14562 13.32191 35488 ft 447 kts 342°
2026-04-25 08:28 40.17499 13.30809 35726 ft 448 kts 342°
2026-04-25 08:28 40.20451 13.29419 36013 ft 448 kts 342°
2026-04-25 08:28 40.23377 13.28040 36358 ft 446 kts 342°
2026-04-25 08:29 40.26256 13.26681 36673 ft 445 kts 342°
2026-04-25 08:29 40.29171 13.25304 36955 ft 444 kts 342°
2026-04-25 08:29 40.32090 13.23924 37216 ft 444 kts 342°
2026-04-25 08:29 40.34995 13.22549 37497 ft 443 kts 341°
2026-04-25 08:30 40.37896 13.21176 37776 ft 443 kts 341°
2026-04-25 08:30 40.40807 13.19796 37917 ft 446 kts 341°
2026-04-25 08:30 40.43699 13.18424 38110 ft 447 kts 341°
2026-04-25 08:31 40.49479 13.15676 38129 ft 432 kts 341°
2026-04-25 08:31 40.55081 13.13008 38123 ft 424 kts 341°
2026-04-25 08:32 40.60635 13.10361 38128 ft 423 kts 341°
2026-04-25 08:32 40.66136 13.07734 38137 ft 422 kts 341°
2026-04-25 08:33 40.71603 13.05118 38137 ft 422 kts 341°
2026-04-25 08:33 40.77119 13.02473 38138 ft 422 kts 341°